[[{"header":{"parameterUnit":"m.s-1","parameterCategory":1,"la1":30.2991,"la2":30.254,"lo1":-89.0895,"lo2":-89.0444,"dy":0.0017,"dx":0.0017,"nx":28,"ny":28,"refTime":"2025-05-15T03:00:00:Z","depth":0,"parameterNumber":2,"parameterNumberName":"U-component_of_WINDS"},"data":[0,0,0,0,0,0,0,0,0,0,0,0,0,0,0,0,0,0,0,0,0,0,0,0,0,0,0,0,0,0,0,0,0,0,0,0,0,0,0,0,0,0,0,0,0,0,0,0,0,0,0,0,0,0,0,0,0,0,-0.4469,-0.4469,0,-0.4426,-0.4426,-0.4425,-0.4393,-0.4393,-0.4393,-0.4393,-0.435,-0.4349,-0.4348,0,0,0,0,0,0,0,0,0,0,0,0,0,-0.4525,-0.4524,-0.4469,-0.4469,-0.4468,-0.4426,-0.4426,-0.4425,-0.4393,-0.4393,-0.4393,-0.4392,-0.435,-0.4349,-0.4348,0,0,0,0,0,0,0,0,0,0,0,0,0,-0.4493,-0.4524,-0.4469,-0.4447,-0.4445,-0.4426,-0.4426,-0.4425,-0.4394,-0.4393,-0.4393,-0.4392,-0.435,-0.4349,-0.4348,-0.4348,0,0,-0.4344,-0.4343,0,0,0,0,0,0,0,0,-0.4495,-0.4491,-0.4451,-0.4449,-0.4446,-0.4415,-0.4429,-0.4399,-0.4394,-0.4413,-0.4393,-0.4392,-0.4372,-0.4369,-0.4362,-0.4346,-0.4344,-0.4344,-0.4343,-0.4342,-0.4342,0,0,0,0,0,0,0,-0.4497,-0.4493,-0.4452,-0.4451,-0.4448,-0.444,-0.4435,-0.4424,-0.4395,-0.4411,-0.4409,-0.4404,-0.437,-0.4363,-0.436,-0.4343,-0.4344,-0.4342,-0.4342,-0.4341,-0.4324,-0.4324,0,0,0,0,0,0,-0.4503,-0.4495,-0.4454,-0.4451,-0.447,-0.4439,-0.4434,-0.4425,-0.4395,-0.439,-0.4405,-0.4403,-0.4365,-0.4362,-0.4359,-0.4355,-0.4342,-0.4341,-0.434,-0.4324,-0.4324,-0.4324,0,0,0,0,0,0,-0.4504,-0.4499,-0.4455,-0.4472,-0.4466,-0.4439,-0.4429,-0.4425,-0.4417,-0.439,-0.4385,-0.4402,-0.4365,-0.4361,-0.435,-0.4353,-0.434,-0.4339,-0.4323,-0.4324,-0.4324,-0.435,0,0,0,0,0,0,-0.4506,-0.45,-0.45,-0.4472,-0.4465,-0.4448,-0.443,-0.4424,-0.4415,-0.4412,-0.4387,-0.4382,-0.4364,-0.4352,-0.4349,-0.4351,-0.4338,-0.4323,-0.4323,-0.4324,-0.4348,-0.4351,-0.4353,0,0,0,0,0,-0.4508,-0.4509,-0.45,-0.4495,-0.4464,-0.4448,-0.4444,-0.4423,-0.4415,-0.4414,-0.4397,-0.4383,-0.4354,-0.4352,-0.4348,-0.435,-0.4322,-0.4323,-0.4324,-0.4347,-0.435,-0.4353,0,0,0,0,0,0,-0.4539,-0.4505,-0.4495,-0.4487,-0.447,-0.4443,-0.4441,-0.4427,-0.4413,-0.4411,-0.4386,-0.4381,-0.4373,-0.436,-0.4358,-0.4347,-0.4336,-0.4336,-0.4355,-0.4358,-0.4361,-0.4363,-0.4337,0,0,0,0,0,-0.4545,-0.4534,-0.4505,-0.4502,-0.4494,-0.4469,-0.4461,-0.4446,-0.4428,-0.4421,-0.4403,-0.4386,-0.4373,-0.4365,-0.4352,-0.4347,-0.434,-0.4346,-0.4348,-0.435,-0.435,-0.4345,-0.4347,-0.4327,-0.4327,-0.4327,0,0,-0.4557,-0.4537,-0.4532,-0.4507,-0.4492,-0.4481,-0.4463,-0.4453,-0.4444,-0.442,-0.4408,-0.4395,-0.4374,-0.4366,-0.4362,-0.4355,-0.4355,-0.4351,-0.4353,-0.4352,-0.4346,-0.4348,-0.435,-0.4327,-0.4327,-0.4327,0,0,-0.4572,-0.4557,-0.4551,-0.4537,-0.4514,-0.4498,-0.4496,-0.447,-0.446,-0.4448,-0.4429,-0.4419,-0.4397,-0.4383,-0.4373,-0.4382,-0.4368,-0.4379,-0.4391,-0.4386,-0.4388,-0.4389,-0.4391,-0.4392,-0.4379,-0.4379,-0.4379,0,-0.459,-0.4573,-0.455,-0.454,-0.453,-0.4506,-0.45,-0.4487,-0.4462,-0.4455,-0.4448,-0.442,-0.4405,-0.4392,-0.4394,-0.4387,-0.4384,-0.4381,-0.4389,-0.439,-0.4391,-0.4393,-0.4394,-0.438,-0.438,-0.438,-0.438,0,-0.4595,-0.4583,-0.4581,-0.4556,-0.4545,-0.4537,-0.4513,-0.4505,-0.4492,-0.4476,-0.4463,-0.4444,-0.4426,-0.4422,-0.4409,-0.4407,-0.4404,-0.4394,-0.4382,-0.4395,-0.4396,-0.4396,-0.4382,-0.4382,-0.4382,-0.4381,0,0,-0.4628,-0.459,-0.459,-0.4577,-0.4551,-0.4541,-0.4532,-0.4513,-0.4506,-0.449,-0.4481,-0.4463,-0.4453,-0.4441,-0.4427,-0.4423,-0.4429,-0.4413,-0.4412,-0.4415,-0.4425,-0.4431,-0.4433,-0.442,-0.442,-0.442,-0.4426,0,-0.4639,-0.462,-0.4599,-0.4588,-0.4576,-0.4553,-0.4545,-0.4528,-0.4513,-0.4501,-0.4484,-0.4471,-0.4459,-0.4452,-0.4447,-0.443,-0.4431,-0.4429,-0.4411,-0.4411,-0.4416,-0.4433,-0.4441,-0.4447,-0.4426,-0.4426,-0.4426,0,-0.4648,-0.4631,-0.4619,-0.4591,-0.4586,-0.4579,-0.4559,-0.4548,-0.4528,-0.4517,-0.4504,-0.4488,-0.4477,-0.4468,-0.4451,-0.4451,-0.4442,-0.4433,-0.4432,-0.4429,-0.4418,-0.4429,-0.4448,-0.4449,-0.4427,-0.4427,-0.4427,0,-0.4672,-0.4646,-0.4635,-0.4625,-0.4594,-0.4589,-0.4576,-0.4556,-0.4545,-0.4529,-0.4521,-0.4504,-0.4495,-0.4482,-0.4461,-0.4456,-0.4447,-0.4436,-0.4437,-0.4437,-0.4435,-0.4435,-0.4452,-0.4432,-0.4432,-0.4432,-0.4432,0,-0.4685,-0.4677,-0.4645,-0.4637,-0.4628,-0.4605,-0.4596,-0.4581,-0.4563,-0.4552,-0.4533,-0.4523,-0.4497,-0.4485,-0.4469,-0.4457,-0.4454,-0.4444,-0.444,-0.4445,-0.4446,-0.4438,-0.4437,-0.4432,-0.4432,-0.4432,-0.4432,0,-0.4709,-0.4687,-0.4672,-0.4644,-0.4636,-0.4631,-0.4606,-0.4598,-0.4582,-0.4569,-0.4564,-0.4539,-0.4523,-0.4502,-0.448,-0.4469,-0.4459,-0.4453,-0.4465,-0.4462,-0.4464,-0.4464,-0.4475,-0.4475,-0.4457,-0.4457,-0.4457,0,-0.4718,-0.4711,-0.4681,-0.4672,-0.466,-0.4646,-0.4635,-0.4612,-0.4601,-0.4577,-0.4572,-0.4554,-0.4539,-0.4515,-0.4494,-0.4477,-0.447,-0.4475,-0.4467,-0.4472,-0.4468,-0.4468,-0.4467,-0.4477,-0.4477,-0.4477,-0.4477,0,-0.4735,-0.4724,-0.4709,-0.4689,-0.4677,-0.4661,-0.4644,-0.4638,-0.4611,-0.46,-0.4583,-0.4571,-0.4548,-0.453,-0.451,-0.4497,-0.4483,-0.448,-0.4479,-0.4484,-0.4491,-0.4486,-0.4469,-0.448,-0.448,-0.4479,-0.4479,-0.4479,-0.4751,-0.4743,-0.4721,-0.4704,-0.4689,-0.4673,-0.4664,-0.4646,-0.4631,-0.461,-0.4597,-0.4581,-0.456,-0.4531,-0.4519,-0.4505,-0.45,-0.4499,-0.4498,-0.4498,-0.4499,-0.4494,-0.4502,-0.4502,-0.4502,-0.4502,-0.4502,0,-0.4766,-0.475,-0.4735,-0.4711,-0.4698,-0.4685,-0.4665,-0.4655,-0.4641,-0.4622,-0.4607,-0.4588,-0.4571,-0.4549,-0.453,-0.4524,-0.4516,-0.4519,-0.4519,-0.4516,-0.4506,-0.4508,-0.4525,-0.4525,-0.4525,-0.4525,-0.4525,-0.4525,-0.4772,-0.4758,-0.4745,-0.4723,-0.4708,-0.469,-0.468,-0.4665,-0.4651,-0.4629,-0.4614,-0.46,-0.458,-0.456,-0.4544,-0.4538,-0.4531,-0.4536,-0.4528,-0.4519,-0.4517,-0.4515,-0.4516,-0.4535,-0.4535,-0.4539,-0.4539,-0.4539]},{"header":{"parameterUnit":"m.s-1","parameterCategory":1,"la1":30.2991,"la2":30.254,"lo1":-89.0895,"lo2":-89.0444,"dy":0.0017,"dx":0.0017,"nx":28,"ny":28,"refTime":"2025-05-15T03:00:00:Z","depth":0,"parameterNumber":3,"parameterNumberName":"V-component_of_WINDS"},"data":[0,0,0,0,0,0,0,0,0,0,0,0,0,0,0,0,0,0,0,0,0,0,0,0,0,0,0,0,0,0,0,0,0,0,0,0,0,0,0,0,0,0,0,0,0,0,0,0,0,0,0,0,0,0,0,0,0,0,5.5541,5.554,0,5.5494,5.5494,5.5493,5.5461,5.5461,5.546,5.546,5.5409,5.5407,5.5406,0,0,0,0,0,0,0,0,0,0,0,0,0,5.5598,5.5597,5.5541,5.554,5.5539,5.5494,5.5493,5.5493,5.5461,5.5461,5.546,5.546,5.5409,5.5408,5.5406,0,0,0,0,0,0,0,0,0,0,0,0,0,5.5565,5.5597,5.5541,5.5518,5.5516,5.5494,5.5493,5.5493,5.5461,5.5461,5.546,5.546,5.5409,5.5408,5.5406,5.5402,0,0,5.5401,5.54,0,0,0,0,0,0,0,0,5.5566,5.5562,5.5522,5.552,5.5517,5.5483,5.5495,5.5462,5.5461,5.5482,5.546,5.546,5.5433,5.543,5.5421,5.54,5.5397,5.54,5.5399,5.5399,5.5398,0,0,0,0,0,0,0,5.5569,5.5564,5.5522,5.5522,5.5518,5.5509,5.5504,5.5488,5.546,5.548,5.5477,5.5473,5.5432,5.5423,5.542,5.5397,5.54,5.5399,5.5398,5.5397,5.5369,5.5369,0,0,0,0,0,0,5.5575,5.5566,5.5524,5.5521,5.5541,5.5508,5.5503,5.5494,5.546,5.5454,5.5473,5.5471,5.5426,5.5422,5.5418,5.5412,5.5399,5.5397,5.5396,5.5369,5.5369,5.5369,0,0,0,0,0,0,5.5577,5.5572,5.5525,5.5543,5.5536,5.5508,5.5499,5.5493,5.5485,5.5455,5.5449,5.547,5.5426,5.5421,5.5407,5.5409,5.5396,5.5395,5.5368,5.5369,5.5369,5.5398,0,0,0,0,0,0,5.5578,5.5572,5.5572,5.5543,5.5536,5.5516,5.5499,5.5493,5.5482,5.548,5.545,5.5445,5.5425,5.5409,5.5405,5.5407,5.5393,5.5368,5.5369,5.5369,5.5397,5.54,5.5402,0,0,0,0,0,5.5581,5.5581,5.5572,5.5567,5.5534,5.5516,5.5512,5.549,5.5483,5.5481,5.5462,5.5446,5.541,5.5408,5.5403,5.5404,5.5368,5.5368,5.5369,5.5396,5.5399,5.5402,0,0,0,0,0,0,5.5609,5.5576,5.5566,5.5557,5.554,5.5511,5.5508,5.5494,5.5478,5.5476,5.5448,5.5442,5.5431,5.5416,5.5415,5.5398,5.5387,5.5386,5.5409,5.5412,5.5414,5.5418,5.5392,0,0,0,0,0,5.5614,5.5603,5.5575,5.557,5.5562,5.5537,5.5528,5.5513,5.5494,5.5486,5.5465,5.5446,5.543,5.542,5.5403,5.5395,5.5387,5.5393,5.5395,5.5397,5.5398,5.5392,5.5394,5.5372,5.5372,5.5372,0,0,5.5624,5.5606,5.56,5.5575,5.556,5.5549,5.5531,5.5519,5.551,5.5483,5.547,5.5454,5.543,5.5419,5.5413,5.5406,5.5402,5.5398,5.54,5.5399,5.5393,5.5395,5.5397,5.5372,5.5372,5.5372,0,0,5.5638,5.5623,5.5617,5.5603,5.558,5.5564,5.5562,5.5535,5.5524,5.551,5.549,5.5478,5.5451,5.5436,5.5424,5.5432,5.5417,5.5427,5.5441,5.5435,5.5437,5.5439,5.5442,5.5443,5.5427,5.5427,5.5427,0,5.5654,5.5637,5.5616,5.5606,5.5595,5.5572,5.5565,5.5552,5.5525,5.5517,5.551,5.5477,5.5459,5.5444,5.5446,5.5437,5.5435,5.5431,5.5439,5.544,5.5441,5.5444,5.5445,5.5429,5.5429,5.5429,5.5428,0,5.5658,5.5647,5.5644,5.5621,5.561,5.5602,5.5578,5.5569,5.5555,5.5539,5.5524,5.5502,5.5481,5.5476,5.5462,5.5459,5.5456,5.5444,5.5432,5.5445,5.5447,5.5448,5.5431,5.543,5.543,5.543,0,0,5.5688,5.5653,5.5653,5.5642,5.5615,5.5606,5.5596,5.5577,5.557,5.5552,5.5543,5.5521,5.5511,5.5498,5.5481,5.5476,5.5485,5.5465,5.5464,5.547,5.548,5.549,5.5492,5.5474,5.5474,5.5474,5.5483,0,5.5698,5.5682,5.5662,5.5651,5.5641,5.5618,5.561,5.5592,5.5576,5.5564,5.5546,5.5531,5.5518,5.551,5.5505,5.5485,5.5486,5.5484,5.5465,5.5465,5.5473,5.5493,5.5502,5.5511,5.5483,5.5483,5.5483,0,5.5708,5.5693,5.5682,5.5657,5.5652,5.5645,5.5626,5.5615,5.5594,5.5583,5.5569,5.5551,5.5539,5.5528,5.551,5.5509,5.55,5.5489,5.5489,5.5487,5.5475,5.5491,5.5514,5.5515,5.5484,5.5484,5.5484,0,5.5732,5.5708,5.5699,5.569,5.5661,5.5657,5.5644,5.5623,5.5613,5.5596,5.5589,5.557,5.556,5.5545,5.5523,5.5517,5.5508,5.5495,5.5498,5.5498,5.5497,5.5498,5.5519,5.549,5.549,5.549,5.549,0,5.5745,5.574,5.5709,5.5704,5.5697,5.5673,5.5666,5.5651,5.5633,5.5623,5.5601,5.5592,5.5563,5.555,5.5533,5.5521,5.5516,5.5506,5.5502,5.5509,5.551,5.5503,5.5502,5.5491,5.5491,5.5491,5.5491,0,5.5771,5.5751,5.5739,5.5713,5.5706,5.5702,5.5678,5.5671,5.5655,5.5643,5.5638,5.5611,5.5595,5.5572,5.5548,5.5536,5.5527,5.5519,5.5535,5.5532,5.5537,5.5537,5.5554,5.5556,5.5526,5.5526,5.5527,0,5.5781,5.5777,5.575,5.5743,5.5732,5.572,5.571,5.5686,5.5677,5.5653,5.5649,5.5631,5.5616,5.5591,5.5569,5.5551,5.5542,5.555,5.5539,5.5547,5.5543,5.5544,5.5544,5.5552,5.5553,5.5553,5.5553,0,5.5802,5.5793,5.578,5.5764,5.5753,5.5739,5.5723,5.5718,5.5691,5.5681,5.5665,5.5654,5.563,5.5613,5.5592,5.5577,5.5561,5.5557,5.5557,5.5564,5.5574,5.5569,5.5542,5.5557,5.5556,5.5556,5.5556,5.5556,5.5821,5.5816,5.5797,5.5784,5.577,5.5756,5.5749,5.5731,5.5718,5.5698,5.5685,5.567,5.5648,5.5619,5.5605,5.5592,5.5585,5.5585,5.5585,5.5585,5.5588,5.5575,5.5588,5.5588,5.5588,5.5587,5.5587,0,5.5842,5.5828,5.5816,5.5796,5.5785,5.5772,5.5754,5.5746,5.5734,5.5716,5.5702,5.5684,5.5667,5.5644,5.5625,5.5619,5.5611,5.5615,5.5615,5.5612,5.5595,5.5597,5.5622,5.5622,5.5622,5.5622,5.5622,5.5622,5.5851,5.5842,5.583,5.5814,5.58,5.5787,5.5778,5.5765,5.5751,5.5732,5.5719,5.5704,5.5684,5.5663,5.5647,5.5641,5.5635,5.5641,5.5632,5.5617,5.5613,5.5611,5.5613,5.564,5.564,5.5651,5.5651,5.5651]}]]